Regional Weather Roundup
Issued by NWS

Home | Current Version | Previous Version | Graphics & Text | Print | Product List | Glossary On
Versions: 1 2 3 4 5 6 7 8 9 10 11 12 13 14 15 16 17 18 19 20 21 22 23 24 25 26 27 28 29 30 31 32 33 34 35 36 37 38 39 40 41 42 43 44 45 46 47 48 49 50
000
ASUS43 KFSD 262210
RWRSD

WEATHER ROUNDUP FOR SOUTH DAKOTA
NATIONAL WEATHER SERVICE SIOUX FALLS SD
500 PM CDT TUE MAY 26 2015

NOTE: "FAIR" INDICATES FEW OR NO CLOUDS BELOW 12,000 FEET WITH NO
SIGNIFICANT WEATHER AND/OR OBSTRUCTIONS TO VISIBILITY.


SDZ001>005-009-010-012>017-262300-
NORTHWEST AND NORTH CENTRAL SOUTH DAKOTA

CITY           SKY/WX    TMP DP  RH WIND       PRES   REMARKS
BUFFALO          N/A     71  44  37 S14G25    29.88F
FAITH            N/A     72  47  40 S7        29.94S
MOBRIDGE       SUNNY     79  49  34 W9        29.85F
$$

SDZ012>016-024>037-041>051-057-063-072>074-262300-
SOUTHWEST AND SOUTH CENTRAL SOUTH DAKOTA

CITY           SKY/WX    TMP DP  RH WIND       PRES   REMARKS
RAPID CTY ARPT CLOUDY    67  50  54 S10       29.97F
PIERRE         MOSUNNY   77  50  38 NW14G21   29.88S
CUSTER         TSTM      51  47  86 E8        30.05R
ELLSWORTH AFB  CLOUDY    65  51  60 S5        29.96F
PHILIP         MOSUNNY   75  48  38 S7        29.93F
PINE RIDGE     CLOUDY    66  47  50 SE9       29.98S
SPEARFISH      FAIR      66  46  48 SE6       29.98S
WINNER         FAIR      77  46  33 NW9G22    29.90F
$$

SDZ004>011-016>023-039-040-262300-
NORTHEAST SOUTH DAKOTA

CITY           SKY/WX    TMP DP  RH WIND       PRES   REMARKS
ABERDEEN       CLOUDY    79  52  38 CALM      29.81F
WATERTOWN      CLOUDY    70  53  54 VRB6      29.84S
BROOKINGS      CLOUDY    66  52  59 N10       29.85S
SISSETON         N/A     74  51  44 W3        29.80F
$$

SDZ017-020-022-023-036>040-048>070-262300-
SOUTHEAST SOUTH DAKOTA

CITY           SKY/WX    TMP DP  RH WIND       PRES   REMARKS
SIOUX FALLS    CLOUDY    67  54  63 N12       29.83S
HURON          MOSUNNY   77  48  35 NE9       29.83F
CHAMBERLAIN    MOSUNNY   74  50  42 NW9       29.87F
MITCHELL       PTSUNNY   75  53  46 VRB3      29.84F
YANKTON        MOSUNNY   73  52  46 NW20      29.83S
$$

ABBREVIATIONS USED IN REMARKS
   TC - TEMPERATURE IN CELSIUS
  WCI - WIND CHILL INDEX
   HX - HEAT INDEX
  VSB - VISIBILITY



USA.gov is the U.S. government's official web portal to all federal, state and local government web resources and services.